[[{"header":{"parameterUnit":"m.s-1","parameterCategory":1,"la1":30.2991,"la2":30.254,"lo1":-89.0895,"lo2":-89.0444,"dy":0.0017,"dx":0.0017,"nx":28,"ny":28,"refTime":"2024-08-22T21:00:00:Z","depth":0,"parameterNumber":2,"parameterNumberName":"U-component_of_WINDS"},"data":[0,0,0,0,0,0,0,0,0,0,0,0,0,0,0,0,0,0,0,0,0,0,0,0,0,0,0,0,0,0,0,0,0,0,0,0,0,0,0,0,0,0,0,0,0,0,0,0,0,0,0,0,0,0,0,0,0,0,-5.9105,-5.9105,0,-5.9111,-5.9111,-5.9112,-5.8943,-5.8939,-5.8934,-5.893,-5.8936,-5.8941,-5.8945,0,0,0,0,0,0,0,0,0,0,0,0,0,-5.8948,-5.8952,-5.9105,-5.9105,-5.9105,-5.9111,-5.9111,-5.9112,-5.8944,-5.8938,-5.8933,-5.8928,-5.8935,-5.894,-5.8945,0,0,0,0,0,0,0,0,0,0,0,0,0,-5.8992,-5.8953,-5.9105,-5.9022,-5.9015,-5.9111,-5.9111,-5.9112,-5.8945,-5.8938,-5.8932,-5.8925,-5.8933,-5.894,-5.8946,-5.9122,0,0,-5.8966,-5.8969,0,0,0,0,0,0,0,0,-5.8989,-5.8998,-5.9034,-5.9028,-5.902,-5.902,-5.9058,-5.9115,-5.8947,-5.8972,-5.893,-5.8922,-5.897,-5.8973,-5.8989,-5.9122,-5.9122,-5.8967,-5.8971,-5.8973,-5.8975,0,0,0,0,0,0,0,-5.8987,-5.8996,-5.9107,-5.9035,-5.9026,-5.8985,-5.8984,-5.9068,-5.9008,-5.8969,-5.8957,-5.896,-5.8964,-5.8983,-5.8988,-5.9122,-5.8966,-5.8972,-5.8976,-5.8979,-5.94,-5.9407,0,0,0,0,0,0,-5.8995,-5.8995,-5.9107,-5.9108,-5.8988,-5.8993,-5.8992,-5.9027,-5.9007,-5.8998,-5.8966,-5.8952,-5.8975,-5.898,-5.8987,-5.919,-5.8973,-5.898,-5.8983,-5.9393,-5.9402,-5.941,0,0,0,0,0,0,-5.8992,-5.9006,-5.9107,-5.9048,-5.9058,-5.9003,-5.9044,-5.903,-5.9048,-5.9004,-5.8993,-5.8995,-5.897,-5.8978,-5.9089,-5.9188,-5.8982,-5.8988,-5.9384,-5.9396,-5.9406,-5.9599,0,0,0,0,0,0,-5.8988,-5.9006,-5.9072,-5.9051,-5.9061,-5.921,-5.905,-5.9035,-5.906,-5.9042,-5.9029,-5.9021,-5.8965,-5.9081,-5.9096,-5.9194,-5.8994,-5.9375,-5.9389,-5.9402,-5.9584,-5.9616,-5.9643,0,0,0,0,0,-5.8983,-5.9127,-5.9077,-5.9091,-5.9143,-5.9215,-5.9221,-5.9155,-5.9069,-5.9135,-5.9107,-5.9021,-5.9176,-5.9093,-5.9109,-5.921,-5.9369,-5.9385,-5.9401,-5.9571,-5.9609,-5.9642,0,0,0,0,0,0,-5.9161,-5.9122,-5.9066,-5.9207,-5.9216,-5.9187,-5.9267,-5.9198,-5.9231,-5.9213,-5.9129,-5.9127,-5.9252,-5.9243,-5.9152,-5.9379,-5.9257,-5.9277,-5.938,-5.9417,-5.9446,-5.9444,-5.8999,0,0,0,0,0,-5.9217,-5.9279,-5.9242,-5.937,-5.9377,-5.9323,-5.9352,-5.93,-5.9305,-5.9308,-5.9288,-5.9297,-5.9347,-5.9382,-5.9426,-5.9583,-5.9577,-5.9661,-5.969,-5.9714,-5.9732,-5.9814,-5.985,-5.9463,-5.9463,-5.9463,0,0,-5.9332,-5.9318,-5.9363,-5.9405,-5.9406,-5.9472,-5.9326,-5.9403,-5.9451,-5.9319,-5.9422,-5.9409,-5.9414,-5.9549,-5.9607,-5.9545,-5.9838,-5.9735,-5.9755,-5.9759,-5.9834,-5.9871,-5.9904,-5.9474,-5.9472,-5.947,0,0,-5.9574,-5.9572,-5.9677,-5.9681,-5.9685,-5.9648,-5.9674,-5.9656,-5.9642,-5.9745,-5.9647,-5.9704,-5.9793,-5.98,-5.9815,-6.0064,-5.9986,-6.0081,-6.0233,-6.0314,-6.0345,-6.0371,-6.0458,-6.0491,-6.0099,-6.01,-6.01,0,-5.9717,-5.9812,-5.974,-5.9823,-5.9844,-5.973,-5.9836,-5.9844,-5.9862,-5.9879,-5.9809,-5.9919,-5.9914,-6.0048,-6.0109,-6.0126,-6.0152,-6.008,-6.0346,-6.0372,-6.0396,-6.0478,-6.0511,-6.0111,-6.011,-6.0109,-6.0108,0,-5.9987,-6.0055,-6.014,-6.016,-6.0192,-6.0286,-6.0228,-6.0269,-6.0216,-6.0186,-6.0293,-6.0283,-6.0323,-6.0352,-6.03,-6.048,-6.0441,-6.0361,-6.0235,-6.0445,-6.0521,-6.0552,-6.0127,-6.0123,-6.012,-6.0117,0,0,-6.0338,-6.0319,-6.0351,-6.0359,-6.0355,-6.0407,-6.0497,-6.0536,-6.0572,-6.0589,-6.0662,-6.0741,-6.0666,-6.0684,-6.0633,-6.0704,-6.09,-6.0614,-6.0613,-6.0666,-6.1097,-6.1155,-6.1193,-6.085,-6.0856,-6.0861,-6.1095,0,-6.0572,-6.0723,-6.0662,-6.0819,-6.0881,-6.0774,-6.0852,-6.0859,-6.0835,-6.0884,-6.0858,-6.0914,-6.0813,-6.0823,-6.0889,-6.0863,-6.0985,-6.0845,-6.0916,-6.0919,-6.0915,-6.1233,-6.1295,-6.1517,-6.1125,-6.113,-6.1133,0,-6.0865,-6.0894,-6.1057,-6.1043,-6.1067,-6.1138,-6.1169,-6.1218,-6.1224,-6.1202,-6.1223,-6.1156,-6.1243,-6.1122,-6.124,-6.1146,-6.1172,-6.1164,-6.1171,-6.1173,-6.1037,-6.1241,-6.1586,-6.1619,-6.118,-6.1176,-6.1173,0,-6.1102,-6.1183,-6.1291,-6.1301,-6.1288,-6.1341,-6.1338,-6.1337,-6.1365,-6.1393,-6.141,-6.1449,-6.1469,-6.1501,-6.1446,-6.1363,-6.1573,-6.1446,-6.1556,-6.1557,-6.1602,-6.1599,-6.1954,-6.1624,-6.1623,-6.1623,-6.1622,0,-6.1368,-6.1472,-6.1397,-6.1463,-6.1576,-6.1506,-6.162,-6.1605,-6.1606,-6.1667,-6.1579,-6.1639,-6.1564,-6.1617,-6.1576,-6.168,-6.169,-6.1674,-6.1661,-6.168,-6.1682,-6.1694,-6.1676,-6.1632,-6.163,-6.1628,-6.1626,0,-6.1651,-6.1606,-6.1716,-6.1695,-6.1693,-6.1777,-6.1759,-6.1819,-6.179,-6.1869,-6.1884,-6.1838,-6.1896,-6.1845,-6.1901,-6.1873,-6.2011,-6.1978,-6.2009,-6.1999,-6.211,-6.21,-6.2482,-6.2528,-6.2172,-6.2175,-6.2178,0,-6.1822,-6.1899,-6.1888,-6.1923,-6.1925,-6.1983,-6.2011,-6.1946,-6.1979,-6.1993,-6.2052,-6.2102,-6.2138,-6.2236,-6.2207,-6.225,-6.2215,-6.2346,-6.222,-6.2237,-6.2214,-6.2209,-6.2216,-6.2371,-6.2375,-6.2379,-6.2381,0,-6.2131,-6.2105,-6.2149,-6.2186,-6.2223,-6.2249,-6.2268,-6.2302,-6.2235,-6.2277,-6.2335,-6.2363,-6.2421,-6.2472,-6.2505,-6.2502,-6.2431,-6.2422,-6.2449,-6.2468,-6.2482,-6.2474,-6.2076,-6.2412,-6.2409,-6.2407,-6.2405,-6.2404,-6.2361,-6.2425,-6.2426,-6.2479,-6.2487,-6.2507,-6.2563,-6.2541,-6.2589,-6.263,-6.2589,-6.266,-6.2664,-6.2702,-6.2708,-6.2762,-6.2707,-6.2747,-6.2757,-6.2767,-6.2782,-6.2476,-6.2768,-6.2767,-6.2767,-6.2766,-6.2765,0,-6.2663,-6.2659,-6.2709,-6.2738,-6.278,-6.2711,-6.2729,-6.2768,-6.2831,-6.2842,-6.288,-6.2948,-6.2997,-6.2974,-6.3017,-6.3065,-6.3034,-6.3079,-6.3073,-6.3073,-6.283,-6.2801,-6.3103,-6.3103,-6.3103,-6.3103,-6.3103,-6.3103,-6.2825,-6.2928,-6.2903,-6.301,-6.3005,-6.3074,-6.309,-6.3108,-6.3116,-6.3195,-6.3236,-6.3221,-6.3219,-6.3261,-6.3304,-6.3296,-6.3315,-6.3371,-6.3352,-6.3124,-6.309,-6.3058,-6.3031,-6.3377,-6.3377,-6.359,-6.3592,-6.3594]},{"header":{"parameterUnit":"m.s-1","parameterCategory":1,"la1":30.2991,"la2":30.254,"lo1":-89.0895,"lo2":-89.0444,"dy":0.0017,"dx":0.0017,"nx":28,"ny":28,"refTime":"2024-08-22T21:00:00:Z","depth":0,"parameterNumber":3,"parameterNumberName":"V-component_of_WINDS"},"data":[0,0,0,0,0,0,0,0,0,0,0,0,0,0,0,0,0,0,0,0,0,0,0,0,0,0,0,0,0,0,0,0,0,0,0,0,0,0,0,0,0,0,0,0,0,0,0,0,0,0,0,0,0,0,0,0,0,0,1.5823,1.5824,0,1.5902,1.5903,1.5904,1.5962,1.5962,1.5963,1.5963,1.604,1.6041,1.6043,0,0,0,0,0,0,0,0,0,0,0,0,0,1.572,1.5722,1.5823,1.5824,1.5825,1.5902,1.5903,1.5904,1.5962,1.5962,1.5963,1.5963,1.6039,1.6041,1.6043,0,0,0,0,0,0,0,0,0,0,0,0,0,1.5778,1.5722,1.5823,1.5863,1.5868,1.5902,1.5903,1.5904,1.5961,1.5962,1.5963,1.5964,1.6039,1.6041,1.6043,1.6042,0,0,1.605,1.6051,0,0,0,0,0,0,0,0,1.5775,1.5782,1.5856,1.5861,1.5866,1.5923,1.5895,1.595,1.5961,1.5926,1.5963,1.5964,1.6,1.6005,1.6018,1.6046,1.6049,1.605,1.6052,1.6053,1.6054,0,0,0,0,0,0,0,1.5771,1.5779,1.5854,1.5857,1.5863,1.5877,1.5886,1.5905,1.5957,1.5929,1.5933,1.5942,1.6003,1.6016,1.6021,1.605,1.605,1.6052,1.6054,1.6055,1.6082,1.6081,0,0,0,0,0,0,1.5761,1.5775,1.5852,1.5857,1.5821,1.5878,1.5888,1.5904,1.5957,1.5966,1.5941,1.5944,1.6012,1.6018,1.6024,1.6027,1.6053,1.6055,1.6056,1.6082,1.6081,1.6081,0,0,0,0,0,0,1.5759,1.5767,1.5849,1.5817,1.5829,1.5879,1.5896,1.5905,1.5918,1.5967,1.5976,1.5946,1.6013,1.602,1.6038,1.603,1.6056,1.6058,1.6083,1.6082,1.6081,1.6032,0,0,0,0,0,0,1.5755,1.5766,1.5767,1.5817,1.583,1.5862,1.5895,1.5906,1.5923,1.5928,1.5973,1.5982,1.6014,1.6034,1.604,1.6034,1.606,1.6084,1.6083,1.6081,1.6034,1.6029,1.6025,0,0,0,0,0,1.5752,1.5748,1.5766,1.5775,1.5832,1.5861,1.5869,1.5907,1.5922,1.5923,1.5954,1.598,1.603,1.6035,1.6042,1.6037,1.6085,1.6083,1.6081,1.6036,1.603,1.6025,0,0,0,0,0,0,1.5694,1.5756,1.5776,1.5789,1.582,1.5871,1.5873,1.5899,1.5924,1.5928,1.5973,1.5983,1.5995,1.6018,1.6022,1.6039,1.6061,1.606,1.6024,1.6018,1.6014,1.6007,1.6062,0,0,0,0,0,1.5683,1.5703,1.5755,1.5762,1.5776,1.5822,1.5836,1.5863,1.5896,1.5909,1.5941,1.5971,1.5994,1.6007,1.6031,1.6038,1.6049,1.6038,1.6033,1.6029,1.6028,1.6034,1.603,1.6076,1.6076,1.6076,0,0,1.566,1.5696,1.5706,1.5751,1.5778,1.5797,1.5832,1.585,1.5864,1.5911,1.593,1.5955,1.5991,1.6004,1.6011,1.6023,1.6018,1.6027,1.6023,1.6025,1.6032,1.6028,1.6024,1.6074,1.6075,1.6075,0,0,1.5628,1.5658,1.5667,1.5694,1.5735,1.5765,1.5767,1.5815,1.5834,1.5854,1.589,1.5907,1.5945,1.597,1.5987,1.5967,1.5992,1.5973,1.5948,1.5953,1.595,1.5947,1.594,1.5937,1.5972,1.5972,1.5972,0,1.5594,1.5625,1.5668,1.5684,1.5703,1.5749,1.5758,1.5782,1.5827,1.5839,1.5852,1.5902,1.5929,1.5949,1.5944,1.5957,1.596,1.5967,1.5947,1.5945,1.5942,1.5936,1.5933,1.5969,1.597,1.597,1.597,0,1.5581,1.5602,1.5604,1.5649,1.5669,1.5681,1.5726,1.574,1.5766,1.5795,1.5815,1.5851,1.5882,1.5889,1.5914,1.5912,1.5919,1.5939,1.5961,1.5935,1.593,1.5927,1.5966,1.5967,1.5967,1.5968,0,0,1.5513,1.5584,1.5583,1.5605,1.5655,1.5671,1.5686,1.5719,1.573,1.5761,1.5774,1.5806,1.5826,1.5846,1.5874,1.5879,1.5861,1.5899,1.59,1.589,1.5862,1.5846,1.5842,1.5879,1.5878,1.5878,1.5859,0,1.5488,1.5519,1.5559,1.5576,1.5596,1.564,1.5653,1.5684,1.5713,1.5733,1.5764,1.5786,1.581,1.5823,1.583,1.5862,1.5856,1.5864,1.5891,1.5891,1.588,1.584,1.5823,1.5803,1.5857,1.5857,1.5857,0,1.5463,1.5493,1.5512,1.5562,1.5571,1.5583,1.5617,1.5636,1.5672,1.5693,1.5716,1.5747,1.5765,1.5785,1.581,1.5815,1.5829,1.5846,1.5846,1.5849,1.5871,1.5841,1.5797,1.5794,1.5854,1.5854,1.5854,0,1.5411,1.5457,1.5474,1.5491,1.5549,1.5556,1.558,1.5618,1.5636,1.5665,1.5677,1.5708,1.5724,1.5747,1.5785,1.5797,1.5806,1.583,1.5822,1.5821,1.5821,1.5821,1.5778,1.5831,1.5831,1.5831,1.5831,0,1.5379,1.5389,1.5452,1.5463,1.5475,1.5522,1.5533,1.5561,1.5594,1.5611,1.5651,1.5665,1.5715,1.5736,1.5766,1.5782,1.5789,1.5805,1.5813,1.5801,1.5799,1.581,1.5812,1.583,1.583,1.5831,1.5831,0,1.5323,1.5366,1.5388,1.5442,1.5456,1.5463,1.5508,1.552,1.5552,1.5572,1.558,1.5628,1.5654,1.5695,1.5733,1.5753,1.5764,1.5777,1.5752,1.5757,1.5747,1.5747,1.571,1.5707,1.5761,1.5761,1.576,0,1.5299,1.5308,1.5364,1.5379,1.5402,1.5425,1.5444,1.549,1.5508,1.5552,1.5558,1.5588,1.5614,1.5654,1.5692,1.5721,1.5735,1.572,1.5739,1.5728,1.5734,1.5733,1.5734,1.5715,1.5714,1.5713,1.5713,0,1.5252,1.5274,1.53,1.5334,1.5356,1.5385,1.5415,1.5425,1.5478,1.5496,1.5524,1.5544,1.5584,1.5613,1.5648,1.5672,1.5701,1.5707,1.5706,1.5694,1.5679,1.5687,1.5739,1.5707,1.5707,1.5708,1.5708,1.5708,1.5212,1.5222,1.5263,1.5292,1.532,1.5348,1.5363,1.5397,1.5422,1.5459,1.5484,1.5511,1.5549,1.5599,1.5622,1.5643,1.5655,1.5655,1.5655,1.5654,1.565,1.5677,1.565,1.565,1.565,1.565,1.565,0,1.5167,1.5196,1.5222,1.5265,1.5287,1.5315,1.535,1.5367,1.539,1.5424,1.5449,1.5482,1.5511,1.5552,1.5584,1.5593,1.5607,1.5599,1.5599,1.5604,1.5637,1.5634,1.5588,1.5588,1.5588,1.5588,1.5588,1.5588,1.5146,1.5166,1.5192,1.5226,1.5256,1.5283,1.5301,1.5328,1.5355,1.539,1.5415,1.5442,1.5479,1.5514,1.5542,1.5553,1.5563,1.5551,1.5566,1.5596,1.5602,1.5607,1.5604,1.5553,1.5553,1.5532,1.5532,1.5532]}]]